Location: Unspecified
(0.0000°N, 0.0000°E)
Time: 00:46:16
(UTC+00:00)

Vanguard 2 - Pass Details

Date: 21 December 2018
Orbit: 552 x 2939 km, 32.9° (Epoch: 18 January)

Event Time Altitude Azimuth Distance (km) Brightness Sun altitude
Rises 05:45:31 0° 257° (WSW) 6,220 11.7 -2.8°
Reaches altitude 10° 05:51:06 10° 243° (WSW) 5,492 11.5 -1.6°
Maximum altitude 06:02:57 22° 199° (SSW) 4,817 11.7 1.1°
Drops below altitude 10° 06:15:05 10° 154° (SSE) 5,578 12.8 3.9°
Sets 06:20:56 0° 140° (SE) 6,332 13.5 5.3°
